Location: ????
(55.5675°N, 37.6272°E)
Time: 18:48:06
(UTC+00:00)

PAYLOAD B - Pass Details

Date: 14 April 2026
Orbit: 848 x 869 km, 99.0° (Epoch: 19 May)

Event Time Altitude Azimuth Distance (km) Brightness Sun altitude
Rises 17:23:02 0° 163° (SSE) 3,406 6.9 -7.3°
Reaches altitude 10° 17:25:24 10° 163° (SSE) 2,473 6.2 -7.6°
Maximum altitude 17:30:54 85° 252° (WSW) 860 4.3 -8.3°
Drops below altitude 10° 17:36:26 10° 342° (NNW) 2,488 7.4 -8.9°
Sets 17:38:49 0° 343° (NNW) 3,428 8.2 -9.2°
